| time (UTC) | temp F | wind direction | speed knots | gust knots | rain 1hr in | rain 24hr in | rain mn in | humidity % | barometer mb |
| 20260507231551 | 70 | 53 | 0.0 | 4.3 | 0.00 | 0.00 | 0.00 | 55 | 1017.5 |
| 20260507230047 | 70 | 30 | 1.7 | 6.1 | 0.00 | 0.00 | 0.00 | 57 | 1017.6 |
| 20260507224549 | 70 | 259 | 0.9 | 7.0 | 0.00 | 0.00 | 0.00 | 57 | 1017.9 |
| 20260507223048 | 70 | 39 | 0.9 | 5.2 | 0.00 | 0.00 | 0.00 | 60 | 1018.0 |
| 20260507221544 | 69 | 0 | 1.7 | 5.2 | 0.00 | 0.00 | 0.00 | 59 | 1018.3 |
| 20260507220046 | 68 | 34 | 0.9 | 6.1 | 0.00 | 0.00 | 0.00 | 60 | 1018.5 |
| 20260507214548 | 67 | 18 | 1.7 | 5.2 | 0.00 | 0.00 | 0.00 | 62 | 1018.6 |
| 20260507213048 | 66 | 96 | 2.6 | 6.1 | 0.00 | 0.00 | 0.00 | 63 | 1018.7 |
| 20260507211552 | 66 | 360 | 0.9 | 6.1 | 0.00 | 0.00 | 0.00 | 63 | 1018.9 |
| 20260507210041 | 65 | 17 | 1.7 | 4.3 | 0.00 | 0.00 | 0.00 | 64 | 1019.1 |
| 20260507204542 | 65 | 51 | 1.7 | 5.2 | 0.00 | 0.00 | 0.00 | 66 | 1019.4 |
| 20260507203046 | 64 | 38 | 0.9 | 4.3 | 0.00 | 0.00 | 0.00 | 65 | 1019.5 |
| 20260507201546 | 64 | 229 | 0.9 | 4.3 | 0.00 | 0.00 | 0.00 | 69 | 1019.7 |
| 20260507200046 | 63 | 0 | 0.9 | 4.3 | 0.00 | 0.00 | 0.00 | 71 | 1019.8 |
| 20260507194548 | 62 | 201 | 0.9 | 4.3 | 0.00 | 0.00 | 0.00 | 70 | 1020.0 |
| 20260507193043 | 61 | 0 | 0.0 | 3.5 | 0.00 | 0.00 | 0.00 | 72 | 1020.0 |
| 20260507191542 | 61 | 0 | 0.9 | 3.5 | 0.00 | 0.00 | 0.00 | 74 | 1020.1 |
| 20260507190047 | 60 | 19 | 0.9 | 3.5 | 0.00 | 0.00 | 0.00 | 75 | 1020.2 |
| 20260507184547 | 59 | 36 | 0.0 | 2.6 | 0.00 | 0.00 | 0.00 | 76 | 1020.3 |
| 20260507183050 | 58 | 17 | 0.0 | 2.6 | 0.00 | 0.00 | 0.00 | 78 | 1020.3 |
| 20260507181547 | 58 | 0 | 0.0 | 2.6 | 0.00 | 0.00 | 0.00 | 77 | 1020.4 |
| 20260507180052 | 58 | 352 | 0.0 | 2.6 | 0.00 | 0.00 | 0.00 | 79 | 1020.4 |
| 20260507174605 | 57 | 5 | 0.0 | 2.6 | 0.00 | 0.00 | 0.00 | 81 | 1020.6 |
| 20260507173047 | 56 | 42 | 0.9 | 2.6 | 0.00 | 0.00 | 0.00 | 81 | 1020.6 |
| 20260507171602 | 56 | 0 | 0.0 | 1.7 | 0.00 | 0.00 | 0.00 | 83 | 1020.6 |
| 20260507170046 | 55 | 0 | 0.0 | 1.7 | 0.00 | 0.00 | 0.00 | 84 | 1020.5 |
| 20260507164551 | 55 | 360 | 0.0 | 1.7 | 0.00 | 0.00 | 0.00 | 84 | 1020.5 |
| 20260507163051 | 54 | 294 | 0.0 | 2.6 | 0.00 | 0.00 | 0.00 | 86 | 1020.6 |
| 20260507161545 | 54 | 16 | 0.0 | 2.6 | 0.00 | 0.00 | 0.00 | 86 | 1020.5 |
| 20260507160049 | 54 | 16 | 0.0 | 2.6 | 0.00 | 0.00 | 0.00 | 87 | 1020.8 |
| 20260507154547 | 53 | 0 | 0.0 | 2.6 | 0.00 | 0.00 | 0.00 | 88 | 1020.9 |
| 20260507153053 | 53 | 31 | 0.0 | 1.7 | 0.00 | 0.00 | 0.00 | 88 | 1020.8 |
| 20260507151544 | 53 | 5 | 0.0 | 2.6 | 0.00 | 0.00 | 0.00 | 89 | 1020.8 |
| 20260507150043 | 53 | 0 | 0.0 | 1.7 | 0.00 | 0.00 | 0.00 | 90 | 1020.7 |
| 20260507144552 | 52 | 0 | 0.0 | 0.0 | 0.00 | 0.00 | 0.00 | 91 | 1020.8 |
| 20260507143045 | 52 | 0 | 0.0 | 1.7 | 0.00 | 0.00 | 0.00 | 90 | 1020.7 |
| 20260507141547 | 52 | 0 | 0.0 | 1.7 | 0.00 | 0.00 | 0.00 | 90 | 1020.7 |
| 20260507140101 | 52 | 0 | 0.0 | 0.0 | 0.00 | 0.00 | 0.00 | 90 | 1020.4 |
| 20260507134545 | 52 | 0 | 0.0 | 0.0 | 0.00 | 0.00 | 0.00 | 90 | 1020.4 |
| 20260507133043 | 52 | 0 | 0.0 | 0.0 | 0.00 | 0.00 | 0.00 | 90 | 1020.5 |
| 20260507131543 | 52 | 0 | 0.0 | 0.9 | 0.00 | 0.00 | 0.00 | 90 | 1020.4 |
| 20260507124558 | 52 | 0 | 0.0 | 0.0 | 0.00 | 0.00 | 0.00 | 90 | 1020.6 |
| 20260507123043 | 52 | 0 | 0.0 | 0.0 | 0.00 | 0.00 | 0.00 | 90 | 1020.6 |
| 20260507121545 | 52 | 0 | 0.0 | 0.0 | 0.00 | 0.00 | 0.00 | 90 | 1020.7 |
| 20260507120043 | 52 | 0 | 0.0 | 0.0 | 0.00 | 0.00 | 0.00 | 89 | 1020.8 |
| 20260507114604 | 52 | 0 | 0.0 | 0.0 | 0.00 | 0.00 | 0.00 | 89 | 1020.9 |
| 20260507113047 | 52 | 0 | 0.0 | 0.0 | 0.00 | 0.00 | 0.00 | 89 | 1021.0 |
| 20260507111545 | 52 | 0 | 0.0 | 0.0 | 0.00 | 0.00 | 0.00 | 88 | 1021.0 |
| 20260507110048 | 52 | 0 | 0.0 | 0.9 | 0.00 | 0.00 | 0.00 | 88 | 1021.0 |
| 20260507104552 | 52 | 29 | 0.0 | 0.9 | 0.00 | 0.00 | 0.00 | 87 | 1021.1 |
| 20260507103044 | 52 | 0 | 0.0 | 2.6 | 0.00 | 0.00 | 0.00 | 87 | 1021.2 |
| 20260507101542 | 52 | 0 | 0.0 | 0.0 | 0.00 | 0.00 | 0.00 | 85 | 1021.2 |
| 20260507100047 | 53 | 0 | 0.0 | 0.9 | 0.00 | 0.00 | 0.00 | 85 | 1021.3 |
| 20260507094544 | 53 | 0 | 0.0 | 0.9 | 0.00 | 0.00 | 0.00 | 84 | 1021.4 |
| 20260507093051 | 53 | 0 | 0.0 | 0.0 | 0.00 | 0.00 | 0.00 | 84 | 1021.5 |
| 20260507091552 | 53 | 0 | 0.0 | 1.7 | 0.00 | 0.00 | 0.00 | 84 | 1021.7 |
| 20260507090047 | 53 | 0 | 0.0 | 1.7 | 0.00 | 0.00 | 0.00 | 84 | 1021.7 |
| 20260507084547 | 53 | 28 | 0.0 | 1.7 | 0.00 | 0.00 | 0.00 | 84 | 1021.8 |
| 20260507083044 | 53 | 0 | 0.0 | 1.7 | 0.00 | 0.00 | 0.00 | 84 | 1021.9 |
| 20260507081543 | 53 | 0 | 0.0 | 1.7 | 0.00 | 0.00 | 0.00 | 84 | 1022.0 |
| 20260507080054 | 53 | 0 | 0.0 | 0.9 | 0.00 | 0.00 | 0.00 | 84 | 1022.0 |
| 20260507074604 | 53 | 0 | 0.0 | 1.7 | 0.00 | 0.00 | 0.00 | 85 | 1022.0 |
| 20260507073046 | 52 | 0 | 0.0 | 1.7 | 0.00 | 0.00 | 0.00 | 85 | 1022.1 |
| 20260507071550 | 52 | 0 | 0.0 | 0.0 | 0.00 | 0.00 | 0.00 | 87 | 1022.1 |
| 20260507070103 | 51 | 0 | 0.0 | 0.0 | 0.00 | 0.00 | 0.00 | 87 | 1022.1 |
| 20260507064549 | 51 | 0 | 0.0 | 0.0 | 0.00 | 0.00 | 0.00 | 86 | 1021.9 |
| 20260507063055 | 52 | 0 | 0.0 | 0.0 | 0.00 | 0.00 | 0.00 | 85 | 1022.0 |
| 20260507061548 | 52 | 0 | 0.0 | 0.0 | 0.00 | 0.00 | 0.00 | 85 | 1022.1 |
| 20260507060047 | 52 | 0 | 0.0 | 0.0 | 0.00 | 0.00 | 0.00 | 84 | 1022.0 |
| 20260507054554 | 53 | 0 | 0.0 | 0.9 | 0.00 | 0.00 | 0.00 | 83 | 1021.9 |
| 20260507053047 | 53 | 0 | 0.0 | 0.9 | 0.00 | 0.00 | 0.00 | 82 | 1021.9 |
| 20260507051551 | 54 | 0 | 0.0 | 1.7 | 0.00 | 0.00 | 0.00 | 81 | 1021.9 |
| 20260507050047 | 54 | 0 | 0.0 | 0.9 | 0.00 | 0.00 | 0.00 | 80 | 1021.8 |
| 20260507044546 | 55 | 0 | 0.0 | 0.9 | 0.00 | 0.00 | 0.00 | 79 | 1021.8 |
| 20260507043050 | 56 | 0 | 0.0 | 0.9 | 0.00 | 0.00 | 0.00 | 79 | 1021.6 |
| 20260507041546 | 56 | 0 | 0.0 | 1.7 | 0.00 | 0.00 | 0.00 | 77 | 1021.5 |
| 20260507040044 | 57 | 38 | 0.9 | 2.6 | 0.00 | 0.00 | 0.00 | 76 | 1021.3 |
| 20260507034546 | 58 | 0 | 0.0 | 1.7 | 0.00 | 0.00 | 0.00 | 74 | 1021.2 |
| 20260507033044 | 59 | 0 | 0.0 | 3.5 | 0.00 | 0.00 | 0.00 | 73 | 1021.0 |
| 20260507031546 | 60 | 0 | 0.0 | 2.6 | 0.00 | 0.00 | 0.00 | 71 | 1020.8 |
| 20260507030044 | 61 | 0 | 0.0 | 2.6 | 0.00 | 0.00 | 0.00 | 70 | 1020.6 |
| 20260507024548 | 62 | 46 | 0.0 | 4.3 | 0.00 | 0.00 | 0.00 | 69 | 1020.6 |
| 20260507023041 | 64 | 333 | 0.9 | 4.3 | 0.00 | 0.00 | 0.00 | 67 | 1020.4 |
| 20260507021543 | 65 | 26 | 1.7 | 3.5 | 0.00 | 0.00 | 0.00 | 66 | 1020.3 |
| 20260507020051 | 66 | 0 | 0.9 | 3.5 | 0.00 | 0.00 | 0.00 | 65 | 1020.3 |
| 20260507014551 | 67 | 10 | 0.0 | 2.6 | 0.00 | 0.00 | 0.00 | 65 | 1020.3 |
| 20260507013051 | 68 | 46 | 0.9 | 4.3 | 0.00 | 0.00 | 0.00 | 63 | 1020.2 |
| 20260507011544 | 68 | 0 | 0.9 | 5.2 | 0.00 | 0.00 | 0.00 | 62 | 1020.1 |
| 20260507010054 | 69 | 28 | 0.9 | 3.5 | 0.00 | 0.00 | 0.00 | 61 | 1020.2 |
| 20260507004546 | 70 | 0 | 0.9 | 6.1 | 0.00 | 0.00 | 0.00 | 61 | 1020.0 |
| 20260507003043 | 70 | 15 | 1.7 | 5.2 | 0.00 | 0.00 | 0.00 | 61 | 1020.0 |
| 20260507001547 | 70 | 29 | 1.7 | 5.2 | 0.00 | 0.00 | 0.00 | 61 | 1020.0 |
| 20260507000051 | 71 | 21 | 0.9 | 5.2 | 0.00 | 0.00 | 0.00 | 60 | 1020.0 |
| 20260506234545 | 71 | 19 | 1.7 | 5.2 | 0.00 | 0.00 | 0.00 | 60 | 1020.0 |
| 20260506233101 | 71 | 238 | 1.7 | 6.1 | 0.00 | 0.00 | 0.00 | 60 | 1019.8 |